This is the latest recevied weather packets stored in our database for station/object EA5JUX. If no packets are shown the sender has not sent any weather packets the latest 10 day(s).
| Time | Temp. | Humidity | Pressure | Rain* | Wind** | Luminosity | Snow |
|---|---|---|---|---|---|---|---|
| 1787743901 | 30° C | 57% | 1011 hPa | 0 mm | - | - | - |
| 1787743610 | 28.89° C | 58% | 1011.4 hPa | 0 mm | - | - | - |
| 1787743301 | 28.89° C | 61% | 1011.3 hPa | 0 mm | - | - | - |
| 1787743009 | 29.44° C | 63% | 1010.8 hPa | 0 mm | - | - | - |
| 1787742701 | 28.89° C | 59% | 1011.3 hPa | 0 mm | - | - | - |
| 1787742412 | 28.33° C | 59% | 1011.6 hPa | 0 mm | - | - | - |
| 1787742101 | 28.33° C | 67% | 1011.6 hPa | 0 mm | - | - | - |
| 1787741801 | 29.44° C | 65% | 1011.4 hPa | 0 mm | - | - | - |
| 1787741502 | 29.44° C | 61% | 1011.5 hPa | 0 mm | - | - | - |
| 1787741211 | 28.89° C | 60% | 1012 hPa | 0 mm | - | - | - |
| 1787740901 | 27.78° C | 67% | 1011.7 hPa | 0 mm | - | - | - |
| 1787740601 | 28.33° C | 66% | 1010.9 hPa | 0 mm | - | - | - |
| 1787740301 | 28.33° C | 66% | 1011.6 hPa | 0 mm | - | - | - |
| 1787740001 | 28.33° C | 65% | 1011.4 hPa | 0 mm | - | - | - |
| 1787739723 | 28.89° C | 63% | 1011.6 hPa | 0 mm | - | - | - |
| 1787739401 | 29.44° C | 59% | 1011.4 hPa | 0 mm | - | - | - |
| 1787739101 | 28.89° C | 59% | 1011.8 hPa | 0 mm | - | - | - |
| 1787738802 | 28.89° C | 65% | 1011.5 hPa | 0 mm | - | - | - |
| 1787738501 | 28.33° C | 65% | 1011.4 hPa | 0 mm | - | - | - |
| 1787738201 | 28.33° C | 68% | 1011.1 hPa | 0 mm | - | - | - |
| 1787737902 | 28.33° C | 68% | 1011.3 hPa | 0 mm | - | - | - |
| 1787737602 | 28.33° C | 68% | 1011.4 hPa | 0 mm | - | - | - |
| 1787737301 | 27.78° C | 66% | 1011.2 hPa | 0 mm | - | - | - |
| 1787737001 | 28.89° C | 63% | 1011.5 hPa | 0 mm | - | - | - |
| 1787736702 | 29.44° C | 59% | 1011.1 hPa | 0 mm | - | - | - |
* Rain latest hour (hover to see other rain measurements)
** Current wind speed in m/s (hover to see current wind gust speed)